Location: Christchurch
(43.5330°S, 172.6330°E)
Time: 17:07:25
(UTC+12:00)

Cosmos 1486 Rocket - Pass Details

Date: 24 January 2019
Orbit: 759 x 783 km, 74.1° (Epoch: 19 April)

Event Time Altitude Azimuth Distance (km) Brightness Sun altitude
Exits shadow 22:37:21 - 351° (N) 2,736 6.5 -14.4°
Reaches altitude 10° 22:38:29 10° 352° (N) 2,298 6.1 -14.5°
Maximum altitude 22:43:39 66° 73° (ENE) 843 4.0 -15.2°
Drops below altitude 10° 22:48:55 10° 154° (SSE) 2,341 6.8 -15.8°
Sets 22:51:21 0° 156° (SSE) 3,279 7.6 -16.1°
